Location: Dana
(41.8364°N, 106.7042°W)
Time: 20:42:25
(UTC+00:00)

Injun/Solrad 3 - Pass Details

Date: 17 May 2026
Orbit: 867 x 989 km, 66.8° (Epoch: 6 June)

Event Time Altitude Azimuth Distance (km) Brightness Sun altitude
Rises 00:23:55 0° 267° (W) 3,552 12.4 19.9°
Reaches altitude 10° 00:27:33 10° 289° (WNW) 2,639 12.4 19.2°
Maximum altitude 00:31:10 16° 325° (NW) 2,271 10.8 18.6°
Drops below altitude 10° 00:34:50 10° 1° (N) 2,694 10.5 17.9°
Sets 00:38:38 0° 23° (NNE) 3,666 10.9 17.2°
